Time,TemperatureF,DewpointF,PressureIn,WindDirection,WindDirectionDegrees,WindSpeedMPH,WindSpeedGustMPH,Humidity,HourlyPrecipIn,Conditions,Clouds,dailyrainin,SoftwareType,DateUTC
2013-10-13 00:01:00,63.6,61.8,30.16,SE,133,14.0,28.0,94,0.00,,---,0.80,VWS V14.01,2013-10-13 04:01:00,
2013-10-13 00:02:00,63.6,61.8,30.15,East,91,15.0,19.0,94,0.00,,---,0.00,VWS V14.01,2013-10-13 04:02:00,
2013-10-13 00:07:00,63.7,61.6,30.16,East,86,16.0,25.0,93,0.00,,---,0.00,VWS V14.01,2013-10-13 04:07:00,
2013-10-13 00:12:00,63.7,61.6,30.15,East,94,15.0,25.0,93,0.00,,---,0.00,VWS V14.01,2013-10-13 04:12:00,
2013-10-13 00:17:00,63.7,61.6,30.15,ESE,102,14.0,25.0,93,0.00,,---,0.00,VWS V14.01,2013-10-13 04:17:00,
2013-10-13 00:22:00,63.8,61.4,30.15,East,98,14.0,25.0,92,0.00,,---,0.00,VWS V14.01,2013-10-13 04:22:00,
2013-10-13 00:27:00,63.8,61.7,30.16,NE,51,14.0,25.0,93,0.00,,---,0.00,VWS V14.01,2013-10-13 04:27:00,
2013-10-13 00:32:00,63.7,61.3,30.16,NE,35,11.0,23.0,92,0.00,,---,0.00,VWS V14.01,2013-10-13 04:32:00,
2013-10-13 00:37:00,63.7,61.3,30.16,NE,41,9.0,27.0,92,0.00,,---,0.00,VWS V14.01,2013-10-13 04:37:00,
2013-10-13 00:42:00,63.7,61.3,30.16,NNE,27,17.0,27.0,92,0.00,,---,0.00,VWS V14.01,2013-10-13 04:42:00,
2013-10-13 00:47:00,63.7,61.3,30.16,NNE,25,9.0,27.0,92,0.00,,---,0.00,VWS V14.01,2013-10-13 04:47:00,
2013-10-13 00:52:00,63.7,61.3,30.16,NE,35,20.0,27.0,92,0.00,,---,0.00,VWS V14.01,2013-10-13 04:52:00,
2013-10-13 00:57:00,63.7,61.3,30.16,NNE,30,20.0,27.0,92,0.00,,---,0.00,VWS V14.01,2013-10-13 04:57:00,
2013-10-13 01:02:00,63.7,61.3,30.16,NNE,32,22.0,22.0,92,0.00,,---,0.00,VWS V14.01,2013-10-13 05:02:00,
2013-10-13 01:07:00,63.5,61.1,30.16,NE,55,21.0,27.0,92,0.00,,---,0.00,VWS V14.01,2013-10-13 05:07:00,
2013-10-13 01:12:00,63.4,60.7,30.17,NE,37,20.0,27.0,91,0.00,,---,0.00,VWS V14.01,2013-10-13 05:12:00,
2013-10-13 01:17:00,63.4,60.7,30.17,NNE,31,16.0,27.0,91,0.00,,---,0.00,VWS V14.01,2013-10-13 05:17:00,
2013-10-13 01:22:00,63.3,60.6,30.17,ENE,68,25.0,27.0,91,0.00,,---,0.00,VWS V14.01,2013-10-13 05:22:00,
2013-10-13 01:27:00,63.2,60.5,30.17,NE,45,20.0,27.0,91,0.00,,---,0.00,VWS V14.01,2013-10-13 05:27:00,
2013-10-13 01:32:00,63.1,60.4,30.17,ESE,111,15.0,24.0,91,0.00,,---,0.00,VWS V14.01,2013-10-13 05:32:00,
2013-10-13 01:37:00,63.1,60.1,30.18,East,79,12.0,26.0,90,0.00,,---,0.00,VWS V14.01,2013-10-13 05:37:00,
2013-10-13 01:42:00,63.1,60.1,30.18,North,354,21.0,31.0,90,0.00,,---,0.00,VWS V14.01,2013-10-13 05:42:00,
2013-10-13 01:47:00,63.0,60.3,30.18,NE,52,14.0,31.0,91,0.00,,---,0.00,VWS V14.01,2013-10-13 05:47:00,
2013-10-13 01:52:00,62.9,59.9,30.18,NE,54,14.0,31.0,90,0.00,,---,0.00,VWS V14.01,2013-10-13 05:52:00,
2013-10-13 01:57:00,62.9,59.9,30.18,NNE,25,21.0,31.0,90,0.00,,---,0.00,VWS V14.01,2013-10-13 05:57:00,
2013-10-13 02:02:00,62.9,59.9,30.18,North,359,15.0,23.0,90,0.00,,---,0.00,VWS V14.01,2013-10-13 06:02:00,
2013-10-13 02:07:00,62.9,59.9,30.18,North,8,18.0,24.0,90,0.00,,---,0.00,VWS V14.01,2013-10-13 06:07:00,
2013-10-13 02:12:00,62.9,60.2,30.18,NE,45,13.0,26.0,91,0.00,,---,0.00,VWS V14.01,2013-10-13 06:12:00,
2013-10-13 02:17:00,62.9,59.9,30.18,NNE,25,21.0,26.0,90,0.00,,---,0.00,VWS V14.01,2013-10-13 06:17:00,
2013-10-13 02:22:00,62.9,59.9,30.18,NE,34,18.0,26.0,90,0.00,,---,0.00,VWS V14.01,2013-10-13 06:22:00,
2013-10-13 02:27:00,62.8,59.8,30.18,NE,41,17.0,28.0,90,0.00,,---,0.00,VWS V14.01,2013-10-13 06:27:00,
2013-10-13 02:32:00,62.9,59.9,30.18,NE,43,16.0,25.0,90,0.00,,---,0.00,VWS V14.01,2013-10-13 06:32:00,
2013-10-13 02:38:00,62.8,59.8,30.18,NNE,23,17.0,25.0,90,0.00,,---,0.00,VWS V14.01,2013-10-13 06:38:00,
2013-10-13 02:42:00,62.7,59.7,30.18,NNE,33,12.0,25.0,90,0.00,,---,0.00,VWS V14.01,2013-10-13 06:42:00,
2013-10-13 02:47:00,62.7,59.7,30.17,NNW,342,12.0,25.0,90,0.00,,---,0.00,VWS V14.01,2013-10-13 06:47:00,
2013-10-13 02:52:00,62.5,59.8,30.17,East,91,9.0,26.0,91,0.00,,---,0.00,VWS V14.01,2013-10-13 06:52:00,
2013-10-13 02:57:00,62.4,59.7,30.18,NE,56,14.0,26.0,91,0.00,,---,0.00,VWS V14.01,2013-10-13 06:57:00,
2013-10-13 03:02:00,62.3,59.6,30.17,ENE,72,15.0,18.0,91,0.00,,---,0.00,VWS V14.01,2013-10-13 07:02:00,
2013-10-13 03:08:00,62.3,59.6,30.17,ENE,59,18.0,24.0,91,0.00,,---,0.00,VWS V14.01,2013-10-13 07:08:00,
2013-10-13 03:12:00,62.3,59.6,30.17,NE,37,14.0,24.0,91,0.00,,---,0.00,VWS V14.01,2013-10-13 07:12:00,
2013-10-13 03:18:00,62.2,59.2,30.17,NNE,17,23.0,27.0,90,0.00,,---,0.00,VWS V14.01,2013-10-13 07:18:00,
2013-10-13 03:23:00,62.4,59.7,30.17,NE,46,16.0,27.0,91,0.00,,---,0.00,VWS V14.01,2013-10-13 07:23:00,
2013-10-13 03:28:00,62.2,59.2,30.17,ENE,68,17.0,27.0,90,0.00,,---,0.00,VWS V14.01,2013-10-13 07:28:00,
2013-10-13 03:33:00,62.3,59.6,30.17,NNE,12,14.0,24.0,91,0.00,,---,0.00,VWS V14.01,2013-10-13 07:33:00,
2013-10-13 03:38:00,62.2,59.2,30.17,NNE,30,20.0,24.0,90,0.00,,---,0.00,VWS V14.01,2013-10-13 07:38:00,
2013-10-13 03:43:00,62.1,59.5,30.18,NE,43,10.0,24.0,91,0.00,,---,0.00,VWS V14.01,2013-10-13 07:43:00,
2013-10-13 03:48:00,61.9,59.5,30.18,NNE,19,12.0,27.0,92,0.00,,---,0.00,VWS V14.01,2013-10-13 07:48:00,
2013-10-13 03:53:00,61.8,59.5,30.18,NE,35,19.0,27.0,92,0.00,,---,0.00,VWS V14.01,2013-10-13 07:53:00,
2013-10-13 03:58:00,61.6,59.3,30.18,NE,56,17.0,27.0,92,0.00,,---,0.00,VWS V14.01,2013-10-13 07:58:00,
2013-10-13 04:03:00,61.8,59.8,30.17,NE,47,15.0,21.0,93,0.00,,---,0.00,VWS V14.01,2013-10-13 08:03:00,
2013-10-13 04:08:00,61.6,59.3,30.17,NNE,32,17.0,28.0,92,0.00,,---,0.00,VWS V14.01,2013-10-13 08:08:00,
2013-10-13 04:13:00,61.7,59.4,30.17,NNE,30,21.0,28.0,92,0.00,,---,0.00,VWS V14.01,2013-10-13 08:13:00,
2013-10-13 04:17:00,61.6,59.0,30.17,NNE,20,17.0,28.0,91,0.00,,---,0.00,VWS V14.01,2013-10-13 08:17:00,
2013-10-13 04:23:00,61.6,59.3,30.18,NNW,335,21.0,28.0,92,0.00,,---,0.00,VWS V14.01,2013-10-13 08:23:00,
2013-10-13 04:28:00,61.6,59.3,30.18,NE,41,11.0,28.0,92,0.00,,---,0.00,VWS V14.01,2013-10-13 08:28:00,
2013-10-13 04:33:00,61.8,58.8,30.18,ENE,63,24.0,24.0,90,0.00,,---,0.00,VWS V14.01,2013-10-13 08:33:00,
2013-10-13 04:38:00,61.9,58.6,30.18,NNE,19,17.0,27.0,89,0.00,,---,0.00,VWS V14.01,2013-10-13 08:38:00,
2013-10-13 04:43:00,62.0,58.7,30.18,NE,38,12.0,27.0,89,0.00,,---,0.00,VWS V14.01,2013-10-13 08:43:00,
2013-10-13 04:48:00,62.1,58.8,30.19,NNE,28,16.0,27.0,89,0.00,,---,0.00,VWS V14.01,2013-10-13 08:48:00,
2013-10-13 04:53:00,62.1,58.8,30.19,NE,34,19.0,27.0,89,0.00,,---,0.00,VWS V14.01,2013-10-13 08:53:00,
2013-10-13 04:58:00,62.1,59.1,30.19,NE,39,19.0,27.0,90,0.00,,---,0.00,VWS V14.01,2013-10-13 08:58:00,
2013-10-13 05:03:00,62.1,58.8,30.19,ENE,70,18.0,22.0,89,0.00,,---,0.00,VWS V14.01,2013-10-13 09:03:00,
2013-10-13 05:08:00,62.2,58.9,30.19,NE,34,15.0,26.0,89,0.00,,---,0.00,VWS V14.01,2013-10-13 09:08:00,
2013-10-13 05:13:00,62.1,58.5,30.19,East,86,17.0,26.0,88,0.00,,---,0.00,VWS V14.01,2013-10-13 09:13:00,
2013-10-13 05:18:00,62.0,58.4,30.20,NE,51,22.0,27.0,88,0.00,,---,0.00,VWS V14.01,2013-10-13 09:18:00,
2013-10-13 05:23:00,62.0,58.7,30.19,East,97,22.0,27.0,89,0.00,,---,0.00,VWS V14.01,2013-10-13 09:23:00,
2013-10-13 05:28:00,62.1,58.8,30.20,NE,37,22.0,27.0,89,0.00,,---,0.00,VWS V14.01,2013-10-13 09:28:00,
2013-10-13 05:33:00,62.0,58.4,30.20,ENE,77,18.0,23.0,88,0.00,,---,0.00,VWS V14.01,2013-10-13 09:33:00,
2013-10-13 05:38:00,61.9,58.3,30.20,NNE,23,14.0,27.0,88,0.00,,---,0.00,VWS V14.01,2013-10-13 09:38:00,
2013-10-13 05:43:00,61.9,58.3,30.20,North,4,9.0,27.0,88,0.00,,---,0.00,VWS V14.01,2013-10-13 09:43:00,
2013-10-13 05:48:00,61.9,58.3,30.20,North,359,25.0,27.0,88,0.00,,---,0.00,VWS V14.01,2013-10-13 09:48:00,
2013-10-13 05:53:00,61.9,58.3,30.21,NE,34,20.0,27.0,88,0.00,,---,0.00,VWS V14.01,2013-10-13 09:53:00,
2013-10-13 05:58:00,62.0,58.4,30.21,NE,46,12.0,27.0,88,0.00,,---,0.00,VWS V14.01,2013-10-13 09:58:00,
2013-10-13 06:03:00,61.9,58.3,30.21,ENE,77,13.0,24.0,88,0.00,,---,0.00,VWS V14.01,2013-10-13 10:03:00,
2013-10-13 06:08:00,62.0,58.1,30.21,NNE,22,23.0,26.0,87,0.00,,---,0.00,VWS V14.01,2013-10-13 10:08:00,
2013-10-13 06:13:00,61.9,58.0,30.21,South,170,9.0,26.0,87,0.00,,---,0.00,VWS V14.01,2013-10-13 10:13:00,
2013-10-13 06:18:00,61.9,58.0,30.22,NE,36,16.0,26.0,87,0.00,,---,0.00,VWS V14.01,2013-10-13 10:18:00,
2013-10-13 06:23:00,62.0,58.4,30.22,East,98,16.0,26.0,88,0.00,,---,0.00,VWS V14.01,2013-10-13 10:23:00,
2013-10-13 06:28:00,61.9,57.7,30.22,NE,42,15.0,29.0,86,0.00,,---,0.00,VWS V14.01,2013-10-13 10:28:00,
2013-10-13 06:33:00,61.9,58.0,30.22,NNE,22,22.0,27.0,87,0.00,,---,0.00,VWS V14.01,2013-10-13 10:33:00,
2013-10-13 06:38:00,61.9,58.0,30.22,ENE,76,17.0,27.0,87,0.00,,---,0.00,VWS V14.01,2013-10-13 10:38:00,
2013-10-13 06:43:00,61.8,57.9,30.22,NNE,19,16.0,27.0,87,0.00,,---,0.00,VWS V14.01,2013-10-13 10:43:00,
2013-10-13 06:57:00,61.9,58.0,30.22,NNE,22,19.0,28.0,87,0.00,,---,0.00,VWS V14.01,2013-10-13 10:57:00,
2013-10-13 07:02:00,61.8,57.9,30.23,North,8,16.0,24.0,87,0.00,,---,0.00,VWS V14.01,2013-10-13 11:02:00,
2013-10-13 07:07:00,61.8,57.9,30.23,NW,314,9.0,24.0,87,0.00,,---,0.00,VWS V14.01,2013-10-13 11:07:00,
2013-10-13 07:12:00,61.8,57.9,30.23,ENE,64,24.0,24.0,87,0.00,,---,0.00,VWS V14.01,2013-10-13 11:12:00,
2013-10-13 07:17:00,61.8,58.2,30.23,NE,44,20.0,27.0,88,0.00,,---,0.00,VWS V14.01,2013-10-13 11:17:00,
2013-10-13 07:22:00,61.8,58.2,30.24,SE,132,12.0,27.0,88,0.00,,---,0.00,VWS V14.01,2013-10-13 11:22:00,
2013-10-13 07:27:00,61.8,57.9,30.24,North,353,11.0,27.0,87,0.00,,---,0.00,VWS V14.01,2013-10-13 11:27:00,
2013-10-13 07:32:00,61.8,57.9,30.24,NNE,19,13.0,18.0,87,0.00,,---,0.00,VWS V14.01,2013-10-13 11:32:00,
2013-10-13 07:37:00,61.7,57.8,30.25,NE,42,17.0,23.0,87,0.00,,---,0.00,VWS V14.01,2013-10-13 11:37:00,
2013-10-13 07:42:00,61.7,57.8,30.25,NE,42,14.0,24.0,87,0.00,,---,0.00,VWS V14.01,2013-10-13 11:42:00,
2013-10-13 07:47:00,61.7,58.1,30.25,NNE,23,24.0,24.0,88,0.00,,---,0.00,VWS V14.01,2013-10-13 11:47:00,
2013-10-13 07:52:00,61.7,58.1,30.25,ENE,75,16.0,24.0,88,0.00,,---,0.00,VWS V14.01,2013-10-13 11:52:00,
2013-10-13 07:57:00,61.6,57.7,30.25,NE,38,16.0,24.0,87,0.00,,---,0.00,VWS V14.01,2013-10-13 11:57:00,
2013-10-13 08:02:00,61.6,57.7,30.26,ENE,68,13.0,21.0,87,0.00,,---,0.00,VWS V14.01,2013-10-13 12:02:00,
2013-10-13 08:07:00,61.7,57.8,30.26,ENE,57,19.0,24.0,87,0.00,,---,0.00,VWS V14.01,2013-10-13 12:07:00,
2013-10-13 08:12:00,61.7,57.8,30.26,NNE,15,18.0,24.0,87,0.00,,---,0.00,VWS V14.01,2013-10-13 12:12:00,
2013-10-13 08:17:00,61.8,57.9,30.26,NE,56,11.0,25.0,87,0.00,,---,0.00,VWS V14.01,2013-10-13 12:17:00,
2013-10-13 08:22:00,61.9,58.0,30.26,NE,43,21.0,25.0,87,0.00,,---,0.00,VWS V14.01,2013-10-13 12:22:00,
2013-10-13 08:27:00,62.0,58.1,30.26,NE,38,14.0,25.0,87,0.00,,---,0.00,VWS V14.01,2013-10-13 12:27:00,
2013-10-13 08:32:00,62.0,57.8,30.26,NW,307,12.0,23.0,86,0.00,,---,0.00,VWS V14.01,2013-10-13 12:32:00,
2013-10-13 08:37:00,62.0,57.8,30.26,NE,50,16.0,24.0,86,0.00,,---,0.00,VWS V14.01,2013-10-13 12:37:00,
2013-10-13 08:42:00,62.0,57.8,30.26,ENE,63,17.0,24.0,86,0.00,,---,0.00,VWS V14.01,2013-10-13 12:42:00,
2013-10-13 08:47:00,62.1,58.2,30.27,ENE,63,17.0,24.0,87,0.00,,---,0.00,VWS V14.01,2013-10-13 12:47:00,
2013-10-13 08:52:00,61.9,58.0,30.27,NNE,31,14.0,26.0,87,0.00,,---,0.00,VWS V14.01,2013-10-13 12:52:00,
2013-10-13 08:57:00,61.8,57.6,30.27,NNE,23,17.0,26.0,86,0.00,,---,0.00,VWS V14.01,2013-10-13 12:57:00,
2013-10-13 09:02:00,61.9,57.7,30.27,NE,42,17.0,21.0,86,0.00,,---,0.00,VWS V14.01,2013-10-13 13:02:00,
2013-10-13 09:07:00,62.0,57.8,30.27,North,1,18.0,24.0,86,0.00,,---,0.00,VWS V14.01,2013-10-13 13:07:00,
2013-10-13 09:12:00,62.0,57.8,30.28,NE,51,14.0,24.0,86,0.00,,---,0.00,VWS V14.01,2013-10-13 13:12:00,
2013-10-13 09:17:00,62.0,57.5,30.28,NNE,24,15.0,25.0,85,0.00,,---,0.00,VWS V14.01,2013-10-13 13:17:00,
2013-10-13 09:22:00,62.2,58.0,30.28,NE,52,12.0,25.0,86,0.00,,---,0.00,VWS V14.01,2013-10-13 13:22:00,
2013-10-13 09:27:00,62.3,57.7,30.28,NNE,15,13.0,25.0,85,0.00,,---,0.00,VWS V14.01,2013-10-13 13:27:00,
2013-10-13 09:32:00,62.1,57.2,30.28,NE,47,16.0,22.0,84,0.00,,---,0.00,VWS V14.01,2013-10-13 13:32:00,
2013-10-13 09:37:00,62.2,57.6,30.28,East,79,14.0,22.0,85,0.00,,---,0.00,VWS V14.01,2013-10-13 13:37:00,
2013-10-13 09:42:00,62.3,57.4,30.28,NNE,14,13.0,25.0,84,0.00,,---,0.00,VWS V14.01,2013-10-13 13:42:00,
2013-10-13 09:47:00,62.3,57.4,30.28,NW,325,16.0,25.0,84,0.00,,---,0.00,VWS V14.01,2013-10-13 13:47:00,
2013-10-13 09:52:00,62.8,57.9,30.28,NNW,347,15.0,25.0,84,0.00,,---,0.00,VWS V14.01,2013-10-13 13:52:00,
2013-10-13 09:57:00,63.3,57.7,30.28,NW,306,16.0,25.0,82,0.00,,---,0.00,VWS V14.01,2013-10-13 13:57:00,
2013-10-13 10:02:00,63.5,57.6,30.28,NE,41,18.0,21.0,81,0.00,,---,0.00,VWS V14.01,2013-10-13 14:02:00,
2013-10-13 10:07:00,63.3,57.4,30.28,East,82,18.0,26.0,81,0.00,,---,0.00,VWS V14.01,2013-10-13 14:07:00,
2013-10-13 10:12:00,63.0,57.4,30.29,ENE,72,16.0,26.0,82,0.00,,---,0.00,VWS V14.01,2013-10-13 14:12:00,
2013-10-13 10:17:00,62.8,57.2,30.29,ESE,103,22.0,26.0,82,0.00,,---,0.00,VWS V14.01,2013-10-13 14:17:00,
2013-10-13 10:22:00,62.7,57.1,30.29,ENE,72,17.0,26.0,82,0.00,,---,0.00,VWS V14.01,2013-10-13 14:22:00,
2013-10-13 10:27:00,62.7,56.8,30.29,NE,42,23.0,26.0,81,0.00,,---,0.00,VWS V14.01,2013-10-13 14:27:00,
2013-10-13 10:32:00,62.6,56.7,30.29,NE,51,17.0,22.0,81,0.00,,---,0.00,VWS V14.01,2013-10-13 14:32:00,
2013-10-13 10:37:00,62.5,56.6,30.29,NNE,31,12.0,24.0,81,0.00,,---,0.00,VWS V14.01,2013-10-13 14:37:00,
2013-10-13 10:42:00,62.6,56.3,30.29,ENE,59,16.0,24.0,80,0.00,,---,0.00,VWS V14.01,2013-10-13 14:42:00,
2013-10-13 10:47:00,62.7,56.8,30.29,ENE,63,13.0,24.0,81,0.00,,---,0.00,VWS V14.01,2013-10-13 14:47:00,
2013-10-13 10:52:00,62.9,57.0,30.30,ENE,57,14.0,24.0,81,0.00,,---,0.00,VWS V14.01,2013-10-13 14:52:00,
2013-10-13 10:57:00,62.9,56.6,30.30,NE,34,13.0,24.0,80,0.00,,---,0.00,VWS V14.01,2013-10-13 14:57:00,
2013-10-13 11:02:00,63.1,57.2,30.30,North,10,17.0,23.0,81,0.00,,---,0.00,VWS V14.01,2013-10-13 15:02:00,
2013-10-13 11:07:00,63.2,56.9,30.30,NNE,22,9.0,23.0,80,0.00,,---,0.00,VWS V14.01,2013-10-13 15:07:00,
2013-10-13 11:12:00,63.4,57.5,30.30,NNE,20,16.0,23.0,81,0.00,,---,0.00,VWS V14.01,2013-10-13 15:12:00,
2013-10-13 11:17:00,63.7,57.4,30.30,North,356,20.0,23.0,80,0.00,,---,0.00,VWS V14.01,2013-10-13 15:17:00,
2013-10-13 11:22:00,63.6,56.6,30.30,ESE,118,10.0,23.0,78,0.00,,---,0.00,VWS V14.01,2013-10-13 15:22:00,
2013-10-13 11:27:00,64.1,57.5,30.30,NE,51,12.0,23.0,79,0.00,,---,0.00,VWS V14.01,2013-10-13 15:27:00,
2013-10-13 11:32:00,64.1,57.1,30.30,NE,45,17.0,22.0,78,0.00,,---,0.00,VWS V14.01,2013-10-13 15:32:00,
2013-10-13 11:37:00,63.9,57.3,30.30,ENE,61,11.0,23.0,79,0.00,,---,0.00,VWS V14.01,2013-10-13 15:37:00,
2013-10-13 11:42:00,64.1,57.5,30.30,ENE,67,17.0,23.0,79,0.00,,---,0.00,VWS V14.01,2013-10-13 15:42:00,
2013-10-13 11:47:00,63.8,56.8,30.30,North,7,16.0,24.0,78,0.00,,---,0.00,VWS V14.01,2013-10-13 15:47:00,
2013-10-13 11:52:00,63.8,56.5,30.30,North,3,21.0,27.0,77,0.00,,---,0.00,VWS V14.01,2013-10-13 15:52:00,
2013-10-13 11:57:00,63.8,56.8,30.30,NE,43,16.0,27.0,78,0.00,,---,0.00,VWS V14.01,2013-10-13 15:57:00,
2013-10-13 12:02:00,64.0,57.0,30.30,ENE,62,17.0,23.0,78,0.00,,---,0.00,VWS V14.01,2013-10-13 16:02:00,
2013-10-13 12:07:00,63.9,56.6,30.30,NNE,29,13.0,23.0,77,0.00,,---,0.00,VWS V14.01,2013-10-13 16:07:00,
2013-10-13 12:12:00,63.9,56.9,30.31,NNE,32,12.0,23.0,78,0.00,,---,0.00,VWS V14.01,2013-10-13 16:12:00,
2013-10-13 12:17:00,63.8,56.5,30.31,NE,56,13.0,24.0,77,0.00,,---,0.00,VWS V14.01,2013-10-13 16:17:00,
2013-10-13 12:22:00,63.8,56.1,30.30,NE,40,22.0,24.0,76,0.00,,---,0.00,VWS V14.01,2013-10-13 16:22:00,
2013-10-13 12:27:00,64.0,57.4,30.30,ESE,120,13.0,24.0,79,0.00,,---,0.00,VWS V14.01,2013-10-13 16:27:00,
2013-10-13 12:32:00,63.7,57.1,30.30,East,101,9.0,23.0,79,0.00,,---,0.00,VWS V14.01,2013-10-13 16:32:00,
2013-10-13 12:38:00,63.8,56.8,30.30,NNE,31,15.0,23.0,78,0.00,,---,0.00,VWS V14.01,2013-10-13 16:38:00,
2013-10-13 12:43:00,64.2,57.6,30.30,NE,46,13.0,23.0,79,0.00,,---,0.00,VWS V14.01,2013-10-13 16:43:00,
2013-10-13 12:48:00,63.9,56.9,30.30,NNE,23,20.0,23.0,78,0.00,,---,0.00,VWS V14.01,2013-10-13 16:48:00,
2013-10-13 12:53:00,63.9,56.9,30.30,ENE,60,18.0,23.0,78,0.00,,---,0.00,VWS V14.01,2013-10-13 16:53:00,
2013-10-13 12:58:00,63.7,56.4,30.30,NNE,26,11.0,26.0,77,0.00,,---,0.00,VWS V14.01,2013-10-13 16:58:00,
2013-10-13 13:03:00,64.0,57.4,30.30,NE,46,17.0,21.0,79,0.00,,---,0.00,VWS V14.01,2013-10-13 17:03:00,
2013-10-13 13:08:00,63.9,56.6,30.30,NE,41,18.0,23.0,77,0.00,,---,0.00,VWS V14.01,2013-10-13 17:08:00,
2013-10-13 13:13:00,64.0,56.7,30.30,NE,49,14.0,23.0,77,0.00,,---,0.00,VWS V14.01,2013-10-13 17:13:00,
2013-10-13 13:18:00,64.2,57.2,30.29,NNE,31,20.0,23.0,78,0.00,,---,0.00,VWS V14.01,2013-10-13 17:18:00,
2013-10-13 13:23:00,63.8,56.5,30.29,NE,39,15.0,23.0,77,0.00,,---,0.00,VWS V14.01,2013-10-13 17:23:00,
2013-10-13 13:28:00,64.1,57.5,30.29,NE,35,17.0,23.0,79,0.00,,---,0.00,VWS V14.01,2013-10-13 17:28:00,
2013-10-13 13:33:00,63.8,56.8,30.29,NE,40,13.0,20.0,78,0.00,,---,0.00,VWS V14.01,2013-10-13 17:33:00,
2013-10-13 13:38:00,64.0,57.0,30.29,NE,55,22.0,22.0,78,0.00,,---,0.00,VWS V14.01,2013-10-13 17:38:00,
2013-10-13 13:43:00,64.1,57.5,30.29,NNW,344,8.0,22.0,79,0.00,,---,0.00,VWS V14.01,2013-10-13 17:43:00,
2013-10-13 13:48:00,63.9,56.6,30.29,NE,49,16.0,23.0,77,0.00,,---,0.00,VWS V14.01,2013-10-13 17:48:00,
2013-10-13 13:53:00,64.1,56.8,30.29,NNE,15,15.0,23.0,77,0.00,,---,0.00,VWS V14.01,2013-10-13 17:53:00,
2013-10-13 13:58:00,64.0,57.0,30.29,NNE,16,12.0,24.0,78,0.00,,---,0.00,VWS V14.01,2013-10-13 17:58:00,
2013-10-13 14:03:00,63.8,56.5,30.29,NE,55,12.0,19.0,77,0.00,,---,0.00,VWS V14.01,2013-10-13 18:03:00,
2013-10-13 14:08:00,63.9,56.9,30.29,NNE,26,14.0,22.0,78,0.00,,---,0.00,VWS V14.01,2013-10-13 18:08:00,
2013-10-13 14:13:00,64.1,56.8,30.29,NE,56,16.0,22.0,77,0.00,,---,0.00,VWS V14.01,2013-10-13 18:13:00,
2013-10-13 14:18:00,63.8,56.8,30.29,NE,34,13.0,22.0,78,0.00,,---,0.00,VWS V14.01,2013-10-13 18:18:00,
2013-10-13 14:23:00,63.8,56.5,30.29,North,359,17.0,22.0,77,0.00,,---,0.00,VWS V14.01,2013-10-13 18:23:00,
2013-10-13 14:28:00,63.6,56.6,30.29,NE,55,17.0,22.0,78,0.00,,---,0.00,VWS V14.01,2013-10-13 18:28:00,
2013-10-13 14:33:00,63.3,56.7,30.29,ENE,63,16.0,24.0,79,0.00,,---,0.00,VWS V14.01,2013-10-13 18:33:00,
2013-10-13 14:38:00,63.1,56.5,30.29,ENE,58,9.0,24.0,79,0.00,,---,0.00,VWS V14.01,2013-10-13 18:38:00,
2013-10-13 14:43:00,63.0,56.0,30.29,NNE,20,13.0,24.0,78,0.00,,---,0.00,VWS V14.01,2013-10-13 18:43:00,
2013-10-13 14:48:00,62.8,56.5,30.29,NE,34,11.0,24.0,80,0.00,,---,0.00,VWS V14.01,2013-10-13 18:48:00,
2013-10-13 14:53:00,62.7,56.1,30.29,NNE,14,12.0,24.0,79,0.00,,---,0.00,VWS V14.01,2013-10-13 18:53:00,
2013-10-13 14:58:00,62.7,56.5,30.29,NE,49,12.0,24.0,80,0.00,,---,0.00,VWS V14.01,2013-10-13 18:58:00,
2013-10-13 15:03:00,62.8,56.5,30.29,NE,45,18.0,25.0,80,0.00,,---,0.00,VWS V14.01,2013-10-13 19:03:00,
2013-10-13 15:08:00,62.5,55.9,30.29,NE,34,10.0,25.0,79,0.00,,---,0.00,VWS V14.01,2013-10-13 19:08:00,
2013-10-13 15:13:00,62.8,57.2,30.29,West,264,9.0,25.0,82,0.00,,---,0.00,VWS V14.01,2013-10-13 19:13:00,
2013-10-13 15:18:00,63.1,57.2,30.29,NE,34,18.0,25.0,81,0.00,,---,0.00,VWS V14.01,2013-10-13 19:18:00,
2013-10-13 15:23:00,63.0,56.7,30.29,ESE,120,11.0,25.0,80,0.00,,---,0.00,VWS V14.01,2013-10-13 19:23:00,
2013-10-13 15:28:00,62.6,56.3,30.29,NNE,26,17.0,25.0,80,0.00,,---,0.00,VWS V14.01,2013-10-13 19:28:00,
2013-10-13 15:33:00,62.7,56.5,30.29,ENE,63,8.0,21.0,80,0.00,,---,0.00,VWS V14.01,2013-10-13 19:33:00,
2013-10-13 15:38:00,62.7,56.8,30.29,NNE,27,11.0,21.0,81,0.00,,---,0.00,VWS V14.01,2013-10-13 19:38:00,
2013-10-13 15:43:00,62.5,56.2,30.29,NE,49,17.0,21.0,80,0.00,,---,0.00,VWS V14.01,2013-10-13 19:43:00,
2013-10-13 15:48:00,62.5,56.9,30.29,NE,37,12.0,22.0,82,0.00,,---,0.00,VWS V14.01,2013-10-13 19:48:00,
2013-10-13 15:53:00,62.5,56.6,30.29,NNE,32,14.0,22.0,81,0.00,,---,0.00,VWS V14.01,2013-10-13 19:53:00,
2013-10-13 15:58:00,62.3,56.4,30.29,NE,40,11.0,23.0,81,0.00,,---,0.00,VWS V14.01,2013-10-13 19:58:00,
2013-10-13 16:03:00,62.2,56.3,30.29,NNE,18,18.0,22.0,81,0.00,,---,0.00,VWS V14.01,2013-10-13 20:03:00,
2013-10-13 16:08:00,62.1,55.9,30.29,ENE,70,14.0,22.0,80,0.00,,---,0.00,VWS V14.01,2013-10-13 20:08:00,
2013-10-13 16:13:00,62.1,56.2,30.29,NE,44,16.0,22.0,81,0.00,,---,0.00,VWS V14.01,2013-10-13 20:13:00,
2013-10-13 16:18:00,62.0,56.1,30.29,ENE,63,18.0,22.0,81,0.00,,---,0.00,VWS V14.01,2013-10-13 20:18:00,
2013-10-13 16:23:00,61.9,56.0,30.29,NNE,33,13.0,22.0,81,0.00,,---,0.00,VWS V14.01,2013-10-13 20:23:00,
2013-10-13 16:28:00,62.0,56.1,30.29,NE,44,15.0,22.0,81,0.00,,---,0.00,VWS V14.01,2013-10-13 20:28:00,
2013-10-13 16:33:00,61.8,56.2,30.28,North,5,13.0,17.0,82,0.00,,---,0.00,VWS V14.01,2013-10-13 20:33:00,
2013-10-13 16:38:00,61.6,56.1,30.29,North,357,17.0,20.0,82,0.00,,---,0.00,VWS V14.01,2013-10-13 20:38:00,
2013-10-13 16:43:00,61.6,56.1,30.28,ENE,68,15.0,21.0,82,0.00,,---,0.00,VWS V14.01,2013-10-13 20:43:00,
2013-10-13 16:48:00,61.4,55.9,30.28,NE,56,8.0,21.0,82,0.00,,---,0.00,VWS V14.01,2013-10-13 20:48:00,
2013-10-13 16:53:00,61.6,56.7,30.28,North,8,14.0,22.0,84,0.00,,---,0.00,VWS V14.01,2013-10-13 20:53:00,
2013-10-13 16:58:00,61.4,55.9,30.28,North,359,8.0,22.0,82,0.00,,---,0.00,VWS V14.01,2013-10-13 20:58:00,
2013-10-13 17:03:00,61.5,56.3,30.28,NNW,344,10.0,17.0,83,0.00,,---,0.00,VWS V14.01,2013-10-13 21:03:00,
2013-10-13 17:08:00,61.3,56.1,30.28,NNE,27,16.0,22.0,83,0.00,,---,0.00,VWS V14.01,2013-10-13 21:08:00,
2013-10-13 17:13:00,61.1,55.6,30.28,NE,49,8.0,22.0,82,0.00,,---,0.00,VWS V14.01,2013-10-13 21:13:00,
2013-10-13 17:18:00,61.1,55.9,30.28,NE,41,14.0,24.0,83,0.00,,---,0.00,VWS V14.01,2013-10-13 21:18:00,
2013-10-13 17:23:00,61.1,55.9,30.28,NE,37,15.0,24.0,83,0.00,,---,0.00,VWS V14.01,2013-10-13 21:23:00,
2013-10-13 17:28:00,61.1,55.9,30.28,NNE,18,14.0,24.0,83,0.00,,---,0.00,VWS V14.01,2013-10-13 21:28:00,
2013-10-13 17:33:00,61.0,55.8,30.28,NE,54,13.0,21.0,83,0.00,,---,0.00,VWS V14.01,2013-10-13 21:33:00,
2013-10-13 17:38:00,61.0,56.1,30.28,East,91,10.0,21.0,84,0.00,,---,0.00,VWS V14.01,2013-10-13 21:38:00,
2013-10-13 17:43:00,60.9,56.0,30.28,NNE,15,20.0,21.0,84,0.00,,---,0.00,VWS V14.01,2013-10-13 21:43:00,
2013-10-13 17:48:00,60.8,55.9,30.28,ESE,113,12.0,21.0,84,0.00,,---,0.00,VWS V14.01,2013-10-13 21:48:00,
2013-10-13 17:53:00,60.8,55.9,30.28,NE,55,11.0,21.0,84,0.00,,---,0.00,VWS V14.01,2013-10-13 21:53:00,
2013-10-13 17:58:00,60.7,55.8,30.28,NE,35,17.0,21.0,84,0.00,,---,0.00,VWS V14.01,2013-10-13 21:58:00,
2013-10-13 18:03:00,60.6,55.4,30.28,ENE,72,15.0,20.0,83,0.00,,---,0.00,VWS V14.01,2013-10-13 22:03:00,
2013-10-13 18:08:00,60.6,55.8,30.28,ENE,72,16.0,21.0,84,0.00,,---,0.00,VWS V14.01,2013-10-13 22:08:00,
2013-10-13 18:13:00,60.5,55.7,30.28,NE,44,13.0,21.0,84,0.00,,---,0.00,VWS V14.01,2013-10-13 22:13:00,
2013-10-13 18:18:00,60.5,56.0,30.28,NE,48,17.0,21.0,85,0.00,,---,0.00,VWS V14.01,2013-10-13 22:18:00,
2013-10-13 18:23:00,60.5,56.0,30.28,East,80,14.0,22.0,85,0.00,,---,0.00,VWS V14.01,2013-10-13 22:23:00,
2013-10-13 18:28:00,60.4,55.9,30.28,NNW,341,12.0,22.0,85,0.00,,---,0.00,VWS V14.01,2013-10-13 22:28:00,
2013-10-13 18:33:00,60.5,56.0,30.28,North,4,13.0,20.0,85,0.00,,---,0.00,VWS V14.01,2013-10-13 22:33:00,
2013-10-13 18:38:00,60.5,56.3,30.28,NE,45,12.0,20.0,86,0.00,,---,0.00,VWS V14.01,2013-10-13 22:38:00,
2013-10-13 18:43:00,60.4,55.9,30.28,NNE,25,10.0,21.0,85,0.00,,---,0.00,VWS V14.01,2013-10-13 22:43:00,
2013-10-13 18:48:00,60.4,55.9,30.28,NE,34,9.0,21.0,85,0.00,,---,0.00,VWS V14.01,2013-10-13 22:48:00,
2013-10-13 18:53:00,60.5,56.0,30.29,ESE,102,14.0,22.0,85,0.00,,---,0.00,VWS V14.01,2013-10-13 22:53:00,
2013-10-13 18:58:00,60.6,56.1,30.29,NNE,19,13.0,22.0,85,0.00,,---,0.00,VWS V14.01,2013-10-13 22:58:00,
2013-10-13 19:03:00,60.6,56.4,30.29,East,90,10.0,17.0,86,0.00,,---,0.00,VWS V14.01,2013-10-13 23:03:00,
2013-10-13 19:08:00,60.5,56.0,30.29,NE,34,11.0,20.0,85,0.00,,---,0.00,VWS V14.01,2013-10-13 23:08:00,
2013-10-13 19:13:00,60.4,55.5,30.29,NE,40,16.0,21.0,84,0.00,,---,0.00,VWS V14.01,2013-10-13 23:13:00,
2013-10-13 19:18:00,60.5,56.0,30.29,NNE,28,15.0,21.0,85,0.00,,---,0.00,VWS V14.01,2013-10-13 23:18:00,
2013-10-13 19:23:00,60.4,56.2,30.29,NE,51,13.0,22.0,86,0.00,,---,0.00,VWS V14.01,2013-10-13 23:23:00,
2013-10-13 19:28:00,60.4,55.9,30.29,NE,41,13.0,22.0,85,0.00,,---,0.00,VWS V14.01,2013-10-13 23:28:00,
2013-10-13 19:33:00,60.4,55.9,30.29,NE,55,12.0,18.0,85,0.00,,---,0.00,VWS V14.01,2013-10-13 23:33:00,
2013-10-13 19:38:00,60.4,55.9,30.29,NNE,30,13.0,20.0,85,0.00,,---,0.00,VWS V14.01,2013-10-13 23:38:00,
2013-10-13 19:43:00,60.4,55.9,30.30,East,81,14.0,21.0,85,0.00,,---,0.00,VWS V14.01,2013-10-13 23:43:00,
2013-10-13 19:48:00,60.4,55.9,30.29,ESE,105,9.0,21.0,85,0.00,,---,0.00,VWS V14.01,2013-10-13 23:48:00,
2013-10-13 19:53:00,60.3,55.8,30.30,North,351,8.0,21.0,85,0.00,,---,0.00,VWS V14.01,2013-10-13 23:53:00,
2013-10-13 19:58:00,60.4,56.2,30.30,NNE,16,12.0,21.0,86,0.00,,---,0.00,VWS V14.01,2013-10-13 23:58:00,
2013-10-13 20:03:00,60.4,55.9,30.30,NNE,20,19.0,19.0,85,0.00,,---,0.00,VWS V14.01,2013-10-14 00:03:00,
2013-10-13 20:08:00,60.4,55.9,30.30,NE,43,12.0,20.0,85,0.00,,---,0.00,VWS V14.01,2013-10-14 00:08:00,
2013-10-13 20:13:00,60.5,56.3,30.30,NE,46,12.0,20.0,86,0.00,,---,0.00,VWS V14.01,2013-10-14 00:13:00,
2013-10-13 20:18:00,60.5,56.3,30.30,NE,41,11.0,20.0,86,0.00,,---,0.00,VWS V14.01,2013-10-14 00:18:00,
2013-10-13 20:23:00,60.5,56.0,30.30,NW,319,12.0,20.0,85,0.00,,---,0.00,VWS V14.01,2013-10-14 00:23:00,
2013-10-13 20:28:00,60.6,56.1,30.30,NE,41,12.0,20.0,85,0.00,,---,0.00,VWS V14.01,2013-10-14 00:28:00,
2013-10-13 20:33:00,60.6,56.1,30.30,NNW,328,8.0,17.0,85,0.00,,---,0.00,VWS V14.01,2013-10-14 00:33:00,
2013-10-13 20:38:00,60.6,56.1,30.30,ENE,60,11.0,17.0,85,0.00,,---,0.00,VWS V14.01,2013-10-14 00:38:00,
2013-10-13 20:43:00,60.6,56.1,30.30,NW,312,11.0,19.0,85,0.00,,---,0.00,VWS V14.01,2013-10-14 00:43:00,
2013-10-13 20:48:00,60.7,56.5,30.30,ENE,65,8.0,19.0,86,0.00,,---,0.00,VWS V14.01,2013-10-14 00:48:00,
2013-10-13 20:53:00,60.6,56.1,30.30,ENE,57,9.0,19.0,85,0.00,,---,0.00,VWS V14.01,2013-10-14 00:53:00,
2013-10-13 20:58:00,60.6,56.4,30.30,North,1,13.0,19.0,86,0.00,,---,0.00,VWS V14.01,2013-10-14 00:58:00,
2013-10-13 21:03:00,60.6,56.4,30.30,ENE,75,13.0,16.0,86,0.00,,---,0.00,VWS V14.01,2013-10-14 01:03:00,
2013-10-13 21:08:00,60.5,56.3,30.30,ENE,76,15.0,20.0,86,0.00,,---,0.00,VWS V14.01,2013-10-14 01:08:00,
2013-10-13 21:13:00,60.6,56.4,30.30,NNE,17,13.0,20.0,86,0.00,,---,0.00,VWS V14.01,2013-10-14 01:13:00,
2013-10-13 21:18:00,60.6,56.4,30.30,ENE,64,11.0,20.0,86,0.00,,---,0.00,VWS V14.01,2013-10-14 01:18:00,
2013-10-13 21:23:00,60.7,56.5,30.30,ENE,57,11.0,20.0,86,0.00,,---,0.00,VWS V14.01,2013-10-14 01:23:00,
2013-10-13 21:28:00,60.8,56.6,30.31,ESE,117,15.0,20.0,86,0.00,,---,0.00,VWS V14.01,2013-10-14 01:28:00,
2013-10-13 21:33:00,60.7,56.2,30.30,NE,56,16.0,20.0,85,0.00,,---,0.00,VWS V14.01,2013-10-14 01:33:00,
2013-10-13 21:38:00,60.7,56.2,30.31,ENE,68,15.0,20.0,85,0.00,,---,0.00,VWS V14.01,2013-10-14 01:38:00,
2013-10-13 21:43:00,60.7,56.2,30.31,East,79,13.0,20.0,85,0.00,,---,0.00,VWS V14.01,2013-10-14 01:43:00,
2013-10-13 21:48:00,60.9,56.7,30.31,NE,41,10.0,20.0,86,0.00,,---,0.00,VWS V14.01,2013-10-14 01:48:00,
2013-10-13 21:53:00,60.7,55.8,30.31,ESE,122,13.0,20.0,84,0.00,,---,0.00,VWS V14.01,2013-10-14 01:53:00,
2013-10-13 21:58:00,60.7,56.2,30.31,ESE,117,12.0,20.0,85,0.00,,---,0.00,VWS V14.01,2013-10-14 01:58:00,
2013-10-13 22:03:00,60.7,56.5,30.32,NE,51,13.0,17.0,86,0.00,,---,0.00,VWS V14.01,2013-10-14 02:03:00,
2013-10-13 22:08:00,60.8,56.3,30.31,SW,234,7.0,19.0,85,0.00,,---,0.00,VWS V14.01,2013-10-14 02:08:00,
2013-10-13 22:13:00,60.7,56.2,30.31,NE,46,11.0,19.0,85,0.00,,---,0.00,VWS V14.01,2013-10-14 02:13:00,
2013-10-13 22:18:00,60.7,56.2,30.31,ENE,60,12.0,19.0,85,0.00,,---,0.00,VWS V14.01,2013-10-14 02:18:00,
2013-10-13 22:23:00,60.8,55.9,30.31,NNE,28,9.0,19.0,84,0.00,,---,0.00,VWS V14.01,2013-10-14 02:23:00,
2013-10-13 22:28:00,60.7,55.8,30.32,NE,43,6.0,19.0,84,0.00,,---,0.00,VWS V14.01,2013-10-14 02:28:00,
2013-10-13 22:33:00,60.7,55.8,30.31,NE,53,8.0,14.0,84,0.00,,---,0.00,VWS V14.01,2013-10-14 02:33:00,
2013-10-13 22:38:00,60.6,56.1,30.31,North,11,8.0,18.0,85,0.00,,---,0.00,VWS V14.01,2013-10-14 02:38:00,
2013-10-13 22:43:00,60.7,56.5,30.31,NNE,33,8.0,18.0,86,0.00,,---,0.00,VWS V14.01,2013-10-14 02:43:00,
2013-10-13 22:48:00,60.6,55.4,30.31,East,93,10.0,18.0,83,0.00,,---,0.00,VWS V14.01,2013-10-14 02:48:00,
2013-10-13 22:53:00,60.6,55.4,30.31,NNE,25,13.0,18.0,83,0.00,,---,0.00,VWS V14.01,2013-10-14 02:53:00,
2013-10-13 22:58:00,60.7,55.8,30.31,East,96,11.0,18.0,84,0.00,,---,0.00,VWS V14.01,2013-10-14 02:58:00,
2013-10-13 23:03:00,60.7,55.8,30.31,SE,136,7.0,12.0,84,0.00,,---,0.00,VWS V14.01,2013-10-14 03:03:00,
2013-10-13 23:08:00,60.7,55.8,30.31,ESE,113,10.0,17.0,84,0.00,,---,0.00,VWS V14.01,2013-10-14 03:08:00,
2013-10-13 23:13:00,60.7,55.8,30.31,ENE,76,7.0,17.0,84,0.00,,---,0.00,VWS V14.01,2013-10-14 03:13:00,
2013-10-13 23:18:00,60.8,56.3,30.31,ENE,60,12.0,17.0,85,0.00,,---,0.00,VWS V14.01,2013-10-14 03:18:00,
2013-10-13 23:23:00,60.7,55.8,30.31,SE,128,6.0,17.0,84,0.00,,---,0.00,VWS V14.01,2013-10-14 03:23:00,
2013-10-13 23:28:00,60.7,56.2,30.30,East,89,11.0,17.0,85,0.00,,---,0.00,VWS V14.01,2013-10-14 03:28:00,
2013-10-13 23:33:00,60.7,55.8,30.30,NE,46,8.0,16.0,84,0.00,,---,0.00,VWS V14.01,2013-10-14 03:33:00,
2013-10-13 23:38:00,60.7,56.2,30.30,SE,125,8.0,16.0,85,0.00,,---,0.00,VWS V14.01,2013-10-14 03:38:00,
2013-10-13 23:43:00,60.6,55.8,30.30,ESE,105,10.0,16.0,84,0.00,,---,0.00,VWS V14.01,2013-10-14 03:43:00,
2013-10-13 23:48:00,60.5,55.7,30.30,NE,36,8.0,17.0,84,0.00,,---,0.00,VWS V14.01,2013-10-14 03:48:00,
2013-10-13 23:53:00,60.5,55.7,30.30,NNE,18,15.0,17.0,84,0.00,,---,0.00,VWS V14.01,2013-10-14 03:53:00,
2013-10-13 23:58:00,60.5,56.0,30.30,ENE,63,13.0,17.0,85,0.00,,---,0.00,VWS V14.01,2013-10-14 03:58:00,